Wednesday, January 17, 2018, 4:39 PM EST
Back to Local

KMFV, Melfa / Accomack Airport

Location: Melfa, VA, United States Lat: 37.65
Local Time: 4:39 PM EST (21:39 GMT) Lon: -75.767
Time Zone: US/Eastern Elev: 49 ft

Show me the last for .
Show Decoded

2018-01-17 16:15 METAR KMFV 172115Z AUTO 34008G18KT 1/4SM SN OVC007 M03/M05 A3025 RMK AO2 P0001
                 T10351047 =
2018-01-17 15:55 METAR KMFV 172055Z AUTO 34010G18KT 1/2SM SN OVC007 M03/M05 A3026 RMK AO2
                 T10351046 =
2018-01-17 15:35 METAR KMFV 172035Z AUTO 34008G17KT 310V010 1/4SM SN OVC009 M03/M04 A3026 RMK AO2
                 T10321044 =
2018-01-17 15:15 METAR KMFV 172015Z AUTO 33013G20KT 1/2SM -SN BKN009 OVC014 M03/M04 A3027 RMK AO2
                 T10301045 =
2018-01-17 14:55 METAR KMFV 171955Z AUTO 34013G17KT 1/4SM SN OVC009 M03/M04 A3026 RMK AO2
                 T10281042 =
2018-01-17 14:35 METAR KMFV 171935Z AUTO 34012G19KT 3/4SM -SN OVC009 M02/M04 A3026 RMK AO2
                 T10221038 =
2018-01-17 14:15 METAR KMFV 171915Z AUTO 33007G15KT 1 1/4SM -SN OVC009 M02/M04 A3027 RMK AO2
                 T10211037 =
2018-01-17 13:55 METAR KMFV 171855Z AUTO 33011G19KT 1 1/4SM -SN SCT009 OVC013 M02/M04 A3027 RMK
                 AO2 T10171038 =
2018-01-17 13:35 METAR KMFV 171835Z AUTO 33014G22KT 10SM OVC015 M01/M04 A3028 RMK AO2 T10101043 =
2018-01-17 13:15 METAR KMFV 171815Z AUTO 34007G23KT 10SM OVC013 M01/M04 A3028 RMK AO2 T10081040 =
2018-01-17 12:55 METAR KMFV 171755Z AUTO 33012G18KT 10SM OVC013 00/M03 A3029 RMK AO2 T10051032
                 10006 21006 =
2018-01-17 12:35 METAR KMFV 171735Z AUTO 34011G18KT 10SM BKN013 OVC065 M01/M03 A3030 RMK AO2
                 T10061033 =
2018-01-17 12:15 METAR KMFV 171715Z AUTO 34006G18KT 10SM BKN013 BKN017 OVC075 00/M03 A3030 RMK
                 AO2 T00001027 =
2018-01-17 11:55 METAR KMFV 171655Z AUTO 34014G19KT 10SM BKN011 OVC015 00/M02 A3030 RMK AO2
                 T00001024 =
2018-01-17 11:35 METAR KMFV 171635Z AUTO 34008G19KT 10SM OVC009 00/M02 A3031 RMK AO2 T00011018 =
2018-01-17 11:15 METAR KMFV 171615Z AUTO 35014G18KT 10SM BKN009 OVC013 00/M02 A3032 RMK AO2
                 T00011016 =
2018-01-17 10:55 METAR KMFV 171555Z AUTO 33012G19KT 10SM OVC009 00/M01 A3034 RMK AO2 T00001015 =
2018-01-17 10:35 METAR KMFV 171535Z AUTO 33011G16KT 300V010 10SM OVC009 00/M01 A3034 RMK AO2
                 T00021010 =
2018-01-17 10:15 METAR KMFV 171515Z AUTO 34009G16KT 10SM OVC009 01/M01 A3033 RMK AO2 T00051010 =
2018-01-17 09:55 METAR KMFV 171455Z AUTO 34008G22KT 310V010 10SM OVC009 01/M01 A3033 RMK AO2
                 T00051008 =
2018-01-17 09:35 METAR KMFV 171435Z AUTO 35009G19KT 7SM OVC007 01/M01 A3033 RMK AO2 T00051007 =
2018-01-17 09:15 METAR KMFV 171415Z AUTO 34011G16KT 320V030 5SM BR OVC007 01/00 A3033 RMK AO2
                 T00051005 =
2018-01-17 08:55 METAR KMFV 171355Z AUTO 33006G15KT 310V010 5SM BR OVC007 01/00 A3031 RMK AO2
                 T00061003 =
2018-01-17 08:35 METAR KMFV 171335Z AUTO 35008G14KT 5SM BR OVC007 01/00 A3031 RMK AO2 T00061002 =
2018-01-17 08:15 METAR KMFV 171315Z AUTO 33008KT 300V360 5SM BR OVC007 01/00 A3030 RMK AO2
                 T00061002 =
2018-01-17 07:55 METAR KMFV 171255Z AUTO 34008G14KT 5SM BR OVC007 01/00 A3031 RMK AO2 T00051002 =
2018-01-17 07:35 METAR KMFV 171235Z AUTO 34007G15KT 7SM BKN007 BKN090 01/00 A3030 RMK AO2
                 T00051005 =
2018-01-17 07:15 METAR KMFV 171215Z AUTO 34007KT 10SM SCT090 01/00 A3030 RMK AO2 T00051005 =
2018-01-17 06:55 METAR KMFV 171155Z AUTO 34009G16KT 10SM SCT090 01/00 A3030 RMK AO2 T00061005
                 10008 21020 =
2018-01-17 06:35 METAR KMFV 171135Z AUTO 34007G15KT 10SM SCT090 01/00 A3029 RMK AO2 T00061005 =
2018-01-17 06:15 METAR KMFV 171115Z AUTO 33008G14KT 10SM CLR 01/00 A3029 RMK AO2 T00071002 =
2018-01-17 05:55 METAR KMFV 171055Z AUTO 33006KT 10SM CLR 01/00 A3030 RMK AO2 T00071002 =
2018-01-17 05:35 METAR KMFV 171035Z AUTO 34005KT 10SM CLR 01/00 A3029 RMK AO2 T00070000 =
2018-01-17 05:15 METAR KMFV 171015Z AUTO 33006KT 10SM SCT085 01/00 A3029 RMK AO2 T00050001 =
2018-01-17 04:55 METAR KMFV 170955Z AUTO 00000KT 10SM BKN085 00/00 A3028 RMK AO2 T00020000 =
2018-01-17 04:35 METAR KMFV 170935Z AUTO 31004KT 7SM BKN085 00/00 A3029 RMK AO2 T10011003 =
2018-01-17 04:15 METAR KMFV 170915Z AUTO 31003KT 7SM SCT085 00/00 A3028 RMK AO2 T10021004 =
2018-01-17 03:55 METAR KMFV 170855Z AUTO 30003KT 7SM CLR 00/00 A3029 RMK AO2 T10041005 =
2018-01-17 03:35 METAR KMFV 170835Z AUTO 30003KT 7SM CLR 00/00 A3029 RMK AO2 T10011003 =
2018-01-17 03:15 METAR KMFV 170815Z AUTO 00000KT 7SM CLR M01/M01 A3028 RMK AO2 T10061008 =
2018-01-17 02:55 METAR KMFV 170755Z AUTO 30006KT 7SM CLR M01/M01 A3028 RMK AO2 T10081010 =
2018-01-17 02:35 METAR KMFV 170735Z AUTO 29003KT 10SM CLR M02/M02 A3028 RMK AO2 T10171020 =
2018-01-17 02:15 METAR KMFV 170715Z AUTO 00000KT 7SM CLR M01/M02 A3028 RMK AO2 T10151017 =
2018-01-17 01:55 METAR KMFV 170655Z AUTO 30003KT 7SM SCT120 M02/M02 A3028 RMK AO2 T10201022 =
2018-01-17 01:35 METAR KMFV 170635Z AUTO 31004KT 10SM BKN120 M01/M02 A3028 RMK AO2 T10151018 =
2018-01-17 01:15 METAR KMFV 170615Z AUTO 30003KT 10SM BKN120 M01/M02 A3029 RMK AO2 T10131017 =
2018-01-17 00:55 METAR KMFV 170555Z AUTO 00000KT 10SM SCT120 M01/M02 A3029 RMK AO2 T10131016
                 11010 21024 =
2018-01-17 00:35 METAR KMFV 170535Z AUTO 30003KT 7SM CLR M01/M01 A3030 RMK AO2 T10111015 =
2018-01-17 00:15 METAR KMFV 170515Z AUTO 00000KT 10SM CLR M01/M01 A3030 RMK AO2 T10111015 =
2018-01-16 23:55 METAR KMFV 170455Z AUTO 30003KT 10SM CLR M01/M01 A3031 RMK AO2 T10101015
                 400401024 =
2018-01-16 23:35 METAR KMFV 170435Z AUTO 29004KT 10SM CLR M01/M02 A3032 RMK AO2 T10131017 =
2018-01-16 23:15 METAR KMFV 170415Z AUTO 29003KT 10SM CLR M02/M02 A3033 RMK AO2 T10161020 =
2018-01-16 22:55 METAR KMFV 170355Z AUTO 00000KT 10SM CLR M02/M02 A3032 RMK AO2 T10171021 =
2018-01-16 22:35 METAR KMFV 170335Z AUTO 00000KT 7SM CLR M02/M02 A3033 RMK AO2 T10161020 =
2018-01-16 22:15 METAR KMFV 170315Z AUTO 00000KT 10SM CLR M02/M02 A3033 RMK AO2 T10181020 =
2018-01-16 21:55 METAR KMFV 170255Z AUTO 33003KT 7SM CLR M02/M02 A3034 RMK AO2 T10201021 =
2018-01-16 21:35 METAR KMFV 170235Z AUTO 31003KT 7SM CLR M02/M02 A3034 RMK AO2 T10211025 =
2018-01-16 21:15 METAR KMFV 170215Z AUTO 00000KT 7SM CLR M02/M02 A3033 RMK AO2 T10211024 =
2018-01-16 20:55 METAR KMFV 170155Z AUTO 31003KT 7SM CLR M02/M03 A3034 RMK AO2 T10231026 =
2018-01-16 20:35 METAR KMFV 170135Z AUTO 30003KT 7SM CLR M02/M02 A3034 RMK AO2 T10201023 =
2018-01-16 20:15 METAR KMFV 170115Z AUTO 00000KT 4SM BR CLR M02/M02 A3034 RMK AO2 T10191020 =
2018-01-16 19:55 METAR KMFV 170055Z AUTO 00000KT 4SM BR CLR M02/M02 A3035 RMK AO2 T10201021 =
2018-01-16 19:35 METAR KMFV 170035Z AUTO 00000KT 5SM BR SCT013 M01/M02 A3035 RMK AO2 T10151016 =
2018-01-16 19:15 METAR KMFV 170015Z AUTO 00000KT 4SM BR SCT013 M02/M02 A3035 RMK AO2 T10171019 =
2018-01-16 18:55 METAR KMFV 162355Z AUTO 00000KT 5SM BR CLR M01/M01 A3036 RMK AO2 T10131015 10028
                 21015 =
2018-01-16 18:35 METAR KMFV 162335Z AUTO 00000KT 5SM BR CLR M01/M01 A3036 RMK AO2 T10131015 =
2018-01-16 18:15 METAR KMFV 162315Z AUTO 00000KT 7SM SCT003 SCT006 M01/M01 A3036 RMK AO2
                 T10121015 =
2018-01-16 17:55 METAR KMFV 162255Z AUTO 00000KT 7SM BKN003 M01/M01 A3035 RMK AO2 T10121015 =
2018-01-16 17:35 METAR KMFV 162235Z AUTO 32003KT 5SM BR OVC003 M01/M01 A3035 RMK AO2 T10101013 =
2018-01-16 17:15 METAR KMFV 162215Z AUTO 31004KT 1SM BR OVC003 M01/M01 A3035 RMK AO2 T10061010 =
2018-01-16 16:55 METAR KMFV 162155Z AUTO 29004KT 7SM BKN003 00/M01 A3035 RMK AO2 T10051010 =

Support USWX by starting your Amazon purchase here.